Starlink 4430

operational
NORAD ID: 53485 Int'l Des: 2022-099 Owner: SPXS Country: US Constellation: starlink
LEOCIRCULARRETROGRADESSO

Starlink 4430について

説明を読み込み中...

リアルタイム位置

3D地球を読み込み中...

次回通過

高度履歴

Altitude vs Time

uPlot chart will show altitude changes over time

軌道要素

1 53485U 22099W 25353.31343099 .00000361 00000-0 32619-4 0 9992
2 53485 97.6014 111.5189 0000784 221.0391 139.0775 15.01264384183926
Epoch: Dec 19, 2025 • Age: 23 hours

現在のステータス

高度 575.2 km
速度 7.58 km/s
衛星直下点 69.51°N, 128.13°E
打ち上げ日 Aug 12, 2022
運用期間 3.3 years
タイプ internet

技術仕様

分類 Payload
質量 300.00 kg
乾燥質量 275.00 kg
総質量 300.00 kg
長さ 0.20 m
直径 2.80 m
スパン 9.00 m
形状 Box + pan
製造者 SPXS
バスタイプ Starlink
フェーズステータス In Orbit
所有者/国 SPXS/US

大規模コンステレーション

Loading constellations...